Tracking 23726 objects as of 22-Sep-2021
HD Live streaming from Space Station
objects crossing your sky now

STARLINK-1907

Track STARLINK-1907 now!
10-day predictions
STARLINK-1907 is classified as:


NORAD ID: 47177
Int'l Code: 2020-088BH
Perigee: 553.4 km
Apogee: 555.3 km
Inclination: 53.1 °
Period: 95.6 minutes
Semi major axis: 6925 km
RCS: Unknown
Launch date: November 25, 2020
Source: United States (US)
Launch site: AIR FORCE EASTERN TEST RANGE (AFETR)
aabbcc
Your satellite tracking list
Your tracking list is empty




NASA's NSSDC Master Catalog

Two Line Element Set (TLE):
1 47177U 20088BH  21265.42348245  .00001695  00000-0  13259-3 0  9996
2 47177  53.0558  45.6881 0001350 113.5631 246.5500 15.06411519 46415
Source of the keplerian elements: AFSPC